Orbital Elements at Epoch 2459000.5 (2020-May-31.0) TDB
Reference: JPL 19 (heliocentric ecliptic J2000)
Element | Value | Uncertainty (1-sigma) | Units |
e | .1334048179276764 | 3.6682e-08 | |
a | 2.356103821565314 | 1.0215e-08 | au |
q | 2.041788220230691 | 8.5104e-08 | au |
i | 5.051923178832281 | 4.4734e-06 | deg |
node | 297.97133053 | 4.4058e-05 | deg |
peri | 163.290920019944 | 4.7708e-05 | deg |
M | 199.531823891191 | 1.9696e-05 | deg |
tp | 2459589.311763714485 (2022-Jan-09.81176371) | 7.4486e-05 | TDB |
period | 1320.961202883505 3.62 | 8.5905e-06 2.352e-08 | d yr |
n | .2725288215991217 | 1.7723e-09 | deg/d |
Q | 2.670419422899937 | 1.1578e-08 | au |
|
| | Orbit Determination Parameters
Additional Information
|